STARLINK-30427, 57865

Orbit data source: Space-Track

STARLINK-30427, 57865 is a payload satellite owned by SpaceX/Seattle (US) in LEO that was launched on Sat, 16 Sep 2023 UTC via an FALCON 9 launch vehicle from the Air Force Eastern Test Range (AFETR). Payload-class satellites include a variety of spacecraft equipped with specific instruments for various scientific and technological missions. These include communications satellites like Starlink; space stations such as the ISS; scientific satellites like the Hubble; Earth observation satellites from companies like Planet Labs, Umbra, and HawkEye 360; GPS; miniature CubeSats for education and research; and military/defense satellites.

Loading next visibility...
Identifier
57865, 2023-144B
Orbit
LEO
Country
Flag of USUS
Related business
Manufacturer
SpaceX/Seattle
Mission
Operational Commercial Communications
Bus & Motor
STARLINK V2M, Unknown motor
Mass
730 kg wet, ~700 kg dry
Launch date (UTC)
2023-09-16 (2 years ago)
Launch vehicle
FALCON 9
Launch site
Air Force Eastern Test Range (AFETR)
Object type
Payload
Rocket body
Debris
Shape & HBR
Box + 2 Pan, 17.7 m
Radar Cross Section
33.884 m², Large (>1 m²)

Expand to show TLE details & history
Last TLE update: 1 day ago

TLE from 1 day ago
0 STARLINK-30427
1 57865U 23144B   25348.18252561 -.00001303  00000-0 -81362-4 0  9990
2 57865  43.0056  32.4790 0002216 285.7212  74.3386 15.02541088124703
Epoch: 2025-12-14T04:22Z
TLE epoch observation values (Epoch: 2025-12-14T04:22:50.212Z)
Latitude
-0.00002°
Longitude
-116.32935°
Altitude
558.428 km
Speed
7.584 km/s
True Right ascension
02h 09m 54s
True Declination
0° 00' 00"
Sunlit
Object was in full shadow at epoch
Visualization orbit readout
Latitude
Unknown
Longitude
Unknown
Altitude
Unknown
Speed
Unknown
Apparent Right ascension
Unknown
Apparent Declination
Unknown
Sunlit
N/A
Visualization observer readout
Local Sidereal Time
13:24:49
Azimuth
Unknown
Elevation
Unknown
Doppler factor
Unknown
Orbital elements
Apogee altitude
562.525 km
Perigee altitude
559.449 km
Semi-major axis
6,939.124 km
Eccentricity
0.00022
Inclination
43.0056°
RAAN
32.479°
Arg. of periapsis
285.7212°
True anomaly
74.36305°
Mean anomaly
74.3386°
Eccentric anomaly
74.35083°
Mean motion
3.75479 °/min
Orbital period
95.88 mins
BSTAR
-0.000081362
Loading maneuver chart data...
Computing Atmospheric mass density...
Loading historical data...
Loading historical data...
Loading historical data...
Loading historical data...
Loading historical data...
Loading historical data...
Loading historical data...

Documentation

Showing up to 5 results
|